[[{"header":{"parameterUnit":"m.s-1","parameterCategory":1,"la1":30.2991,"la2":30.254,"lo1":-89.0895,"lo2":-89.0444,"dy":0.0017,"dx":0.0017,"nx":28,"ny":28,"refTime":"2024-05-03T09:00:00:Z","depth":0,"parameterNumber":2,"parameterNumberName":"U-component_of_WINDS"},"data":[0,0,0,0,0,0,0,0,0,0,0,0,0,0,0,0,0,0,0,0,0,0,0,0,0,0,0,0,0,0,0,0,0,0,0,0,0,0,0,0,0,0,0,0,0,0,0,0,0,0,0,0,0,0,0,0,0,0,1.4146,1.4146,0,1.4179,1.4179,1.418,1.4169,1.4169,1.4168,1.4167,1.4203,1.4204,1.4206,0,0,0,0,0,0,0,0,0,0,0,0,0,1.4075,1.4076,1.4146,1.4146,1.4147,1.4179,1.4179,1.418,1.4169,1.4169,1.4168,1.4167,1.4202,1.4204,1.4206,0,0,0,0,0,0,0,0,0,0,0,0,0,1.4107,1.4077,1.4146,1.4145,1.4146,1.4179,1.4179,1.418,1.417,1.4169,1.4168,1.4167,1.4201,1.4204,1.4206,1.4242,0,0,1.4213,1.4214,0,0,0,0,0,0,0,0,1.4105,1.4109,1.4145,1.4145,1.4146,1.4169,1.4167,1.4201,1.417,1.4161,1.4167,1.4166,1.4192,1.4195,1.4204,1.4244,1.4245,1.4214,1.4215,1.4216,1.4217,0,0,0,0,0,0,0,1.4103,1.4108,1.4159,1.4145,1.4146,1.4144,1.4147,1.4174,1.4182,1.4161,1.4161,1.4165,1.4192,1.4202,1.4205,1.4246,1.4214,1.4216,1.4217,1.4218,1.4317,1.4318,0,0,0,0,0,0,1.41,1.4106,1.4158,1.416,1.4122,1.4146,1.415,1.4163,1.4182,1.4184,1.4165,1.4164,1.4198,1.4202,1.4206,1.425,1.4216,1.4218,1.422,1.4316,1.4318,1.4319,0,0,0,0,0,0,1.4099,1.4105,1.4156,1.4133,1.4139,1.4148,1.4163,1.4164,1.4173,1.4185,1.4186,1.4173,1.4197,1.4203,1.4233,1.4251,1.4219,1.4222,1.4315,1.4317,1.4318,1.4338,0,0,0,0,0,0,1.4097,1.4104,1.4118,1.4133,1.4141,1.4183,1.4164,1.4165,1.4177,1.4175,1.4193,1.4195,1.4197,1.423,1.4236,1.4254,1.4223,1.4313,1.4316,1.4318,1.4336,1.4341,1.4344,0,0,0,0,0,1.4094,1.4122,1.4119,1.4125,1.4157,1.4184,1.4188,1.419,1.4179,1.4193,1.42,1.4194,1.4248,1.4233,1.4239,1.4259,1.4312,1.4315,1.4317,1.4334,1.434,1.4344,0,0,0,0,0,0,1.4109,1.4124,1.412,1.4154,1.4168,1.4182,1.42,1.4196,1.4213,1.4211,1.4213,1.4217,1.4249,1.4256,1.424,1.4295,1.4278,1.4282,1.4289,1.4294,1.4298,1.4296,1.4225,0,0,0,0,0,1.4116,1.4136,1.4148,1.4177,1.4184,1.4191,1.4202,1.4202,1.4217,1.4223,1.4233,1.4247,1.4268,1.4281,1.43,1.4337,1.4341,1.4353,1.4357,1.4361,1.4365,1.4386,1.4391,1.4328,1.4328,1.4328,0,0,1.4132,1.4142,1.4155,1.418,1.4191,1.4212,1.4196,1.4219,1.4235,1.4226,1.4256,1.4264,1.428,1.4314,1.433,1.4322,1.4383,1.4364,1.4367,1.4369,1.4389,1.4395,1.44,1.433,1.4329,1.4329,0,0,1.4171,1.418,1.4205,1.4216,1.4232,1.4237,1.4243,1.4258,1.4263,1.4292,1.4287,1.4306,1.434,1.4353,1.4364,1.4407,1.4402,1.4413,1.4435,1.4455,1.4461,1.4465,1.4482,1.4488,1.4417,1.4417,1.4417,0,1.4188,1.4219,1.4219,1.4243,1.4254,1.4247,1.4274,1.4284,1.4306,1.4315,1.4305,1.4349,1.4359,1.4397,1.4407,1.4416,1.4424,1.4412,1.446,1.4464,1.4468,1.4484,1.449,1.4418,1.4418,1.4418,1.4417,0,1.424,1.4261,1.428,1.4301,1.4315,1.434,1.4344,1.4358,1.4357,1.4362,1.4393,1.4405,1.4427,1.4436,1.4435,1.4473,1.4468,1.4459,1.4443,1.4476,1.4491,1.4497,1.442,1.4419,1.4419,1.4419,0,0,1.429,1.4311,1.4318,1.4327,1.4345,1.4362,1.4386,1.4407,1.442,1.4435,1.4456,1.4486,1.4478,1.449,1.449,1.4508,1.4543,1.4497,1.4497,1.4506,1.4587,1.4595,1.4602,1.4539,1.454,1.4541,1.4586,0,1.4332,1.4375,1.4375,1.4415,1.4436,1.4429,1.4451,1.4464,1.4469,1.4488,1.4494,1.4516,1.4503,1.451,1.4527,1.4535,1.4559,1.4531,1.456,1.4561,1.4558,1.4609,1.4618,1.4659,1.4592,1.4593,1.4593,0,1.4386,1.4403,1.4444,1.4459,1.4468,1.4487,1.4507,1.4524,1.4539,1.4542,1.4556,1.4553,1.4579,1.4561,1.4597,1.4578,1.459,1.4595,1.4597,1.4601,1.4581,1.4616,1.4673,1.4679,1.4603,1.4602,1.4601,0,1.442,1.4453,1.4483,1.4491,1.4508,1.4522,1.453,1.4544,1.4557,1.4574,1.4583,1.4602,1.4614,1.4629,1.4633,1.4619,1.4669,1.4651,1.4673,1.4674,1.4686,1.4685,1.4746,1.4691,1.469,1.469,1.469,0,1.4467,1.4494,1.4498,1.4517,1.4546,1.4546,1.4576,1.4583,1.4595,1.4615,1.461,1.4629,1.4631,1.4651,1.4654,1.4684,1.4689,1.4692,1.4693,1.4694,1.4694,1.4703,1.47,1.4692,1.4692,1.4691,1.4691,0,1.4512,1.4515,1.4547,1.4561,1.4565,1.4586,1.4598,1.4616,1.4621,1.4646,1.4652,1.466,1.4683,1.4687,1.4714,1.4716,1.4753,1.475,1.4748,1.4748,1.4771,1.4769,1.4841,1.4851,1.4787,1.4788,1.4788,0,1.4542,1.4562,1.4578,1.4591,1.4599,1.462,1.4633,1.4634,1.4648,1.4667,1.4682,1.4705,1.4723,1.476,1.4768,1.4789,1.4788,1.4811,1.4791,1.4791,1.479,1.4789,1.4792,1.4816,1.4816,1.4817,1.4817,0,1.4596,1.4597,1.4616,1.4636,1.4651,1.4667,1.4681,1.4692,1.4696,1.4711,1.4735,1.4749,1.4776,1.4799,1.482,1.4829,1.4824,1.4824,1.483,1.4832,1.4831,1.4833,1.476,1.4822,1.4822,1.4822,1.4821,1.4821,1.4636,1.4653,1.4667,1.4689,1.47,1.4713,1.4731,1.4738,1.4757,1.478,1.4779,1.4805,1.482,1.4847,1.4857,1.4878,1.487,1.4879,1.4882,1.4885,1.4888,1.4826,1.4881,1.4881,1.4881,1.4881,1.4881,0,1.4691,1.4699,1.4719,1.474,1.4756,1.4749,1.4765,1.478,1.4803,1.4817,1.4835,1.4862,1.4884,1.4893,1.4915,1.493,1.4928,1.4936,1.4935,1.4938,1.4892,1.4885,1.4937,1.4937,1.4937,1.4937,1.4936,1.4936,1.4722,1.4752,1.4754,1.479,1.4798,1.4824,1.4834,1.4847,1.4858,1.4888,1.4906,1.4912,1.4925,1.4947,1.4967,1.497,1.4978,1.4987,1.4989,1.4946,1.4941,1.4935,1.4929,1.4989,1.4989,1.5032,1.5033,1.5033]},{"header":{"parameterUnit":"m.s-1","parameterCategory":1,"la1":30.2991,"la2":30.254,"lo1":-89.0895,"lo2":-89.0444,"dy":0.0017,"dx":0.0017,"nx":28,"ny":28,"refTime":"2024-05-03T09:00:00:Z","depth":0,"parameterNumber":3,"parameterNumberName":"V-component_of_WINDS"},"data":[0,0,0,0,0,0,0,0,0,0,0,0,0,0,0,0,0,0,0,0,0,0,0,0,0,0,0,0,0,0,0,0,0,0,0,0,0,0,0,0,0,0,0,0,0,0,0,0,0,0,0,0,0,0,0,0,0,0,4.1643,4.1643,0,4.1638,4.1638,4.1638,4.1657,4.1658,4.1658,4.1659,4.165,4.1649,4.1648,0,0,0,0,0,0,0,0,0,0,0,0,0,4.1667,4.1667,4.1643,4.1643,4.1643,4.1638,4.1638,4.1638,4.1657,4.1658,4.1658,4.1659,4.165,4.1649,4.1648,0,0,0,0,0,0,0,0,0,0,0,0,0,4.1659,4.1666,4.1643,4.1652,4.1653,4.1638,4.1638,4.1638,4.1657,4.1658,4.1659,4.1659,4.165,4.1649,4.1648,4.1623,0,0,4.1644,4.1644,0,0,0,0,0,0,0,0,4.1659,4.1658,4.1651,4.1651,4.1652,4.1649,4.1643,4.1633,4.1657,4.1655,4.1659,4.166,4.1649,4.1648,4.1645,4.1623,4.1623,4.1644,4.1644,4.1643,4.1643,0,0,0,0,0,0,0,4.166,4.1658,4.1641,4.1651,4.1652,4.1655,4.1655,4.1641,4.1647,4.1655,4.1657,4.1656,4.1649,4.1646,4.1645,4.1622,4.1644,4.1643,4.1643,4.1642,4.158,4.158,0,0,0,0,0,0,4.166,4.1658,4.1641,4.1641,4.1658,4.1654,4.1654,4.1649,4.1647,4.1648,4.1655,4.1657,4.1647,4.1646,4.1644,4.1615,4.1643,4.1642,4.1641,4.1581,4.158,4.1579,0,0,0,0,0,0,4.166,4.1658,4.1641,4.165,4.1648,4.1653,4.1647,4.1649,4.1645,4.1647,4.1648,4.1651,4.1648,4.1646,4.1629,4.1615,4.1642,4.164,4.1583,4.1581,4.158,4.1557,0,0,0,0,0,0,4.1661,4.1658,4.1649,4.165,4.1648,4.1627,4.1647,4.1648,4.1644,4.1646,4.1643,4.1644,4.1648,4.163,4.1628,4.1614,4.164,4.1584,4.1582,4.158,4.1559,4.1555,4.1552,0,0,0,0,0,4.1661,4.1642,4.1648,4.1646,4.1637,4.1626,4.1625,4.1632,4.1642,4.1633,4.1635,4.1644,4.1618,4.1629,4.1625,4.1611,4.1585,4.1582,4.158,4.1561,4.1556,4.1552,0,0,0,0,0,0,4.1638,4.1642,4.1649,4.163,4.1628,4.1629,4.1618,4.1626,4.162,4.1622,4.163,4.1629,4.161,4.1609,4.1621,4.1588,4.1603,4.16,4.1589,4.1584,4.1581,4.1581,4.1639,0,0,0,0,0,4.1631,4.1622,4.1626,4.1608,4.1607,4.1613,4.1608,4.1614,4.1611,4.161,4.161,4.1606,4.1597,4.1591,4.1582,4.1559,4.1559,4.1548,4.1545,4.1542,4.1539,4.1527,4.1522,4.1572,4.1572,4.1572,0,0,4.1615,4.1617,4.161,4.1604,4.1603,4.1593,4.1611,4.16,4.1593,4.1608,4.1592,4.1592,4.1588,4.1568,4.1559,4.1566,4.1525,4.1539,4.1536,4.1535,4.1524,4.1519,4.1515,4.1571,4.1571,4.1571,0,0,4.1582,4.1582,4.1568,4.1567,4.1566,4.157,4.1566,4.1567,4.1568,4.1552,4.1563,4.1554,4.1539,4.1536,4.1532,4.1499,4.1507,4.1496,4.1476,4.1464,4.146,4.1457,4.1445,4.144,4.1493,4.1493,4.1493,0,4.1562,4.1549,4.1559,4.1547,4.1544,4.1559,4.1544,4.1542,4.1537,4.1534,4.1543,4.1524,4.1523,4.1502,4.1495,4.1491,4.1487,4.1496,4.1461,4.1457,4.1454,4.1442,4.1438,4.1492,4.1492,4.1492,4.1492,0,4.1525,4.1516,4.1504,4.1501,4.1497,4.1483,4.149,4.1484,4.1491,4.1494,4.1478,4.1477,4.1469,4.1465,4.147,4.1445,4.145,4.1459,4.1475,4.1448,4.1437,4.1433,4.149,4.1491,4.1491,4.1491,0,0,4.1476,4.1479,4.1475,4.1474,4.1474,4.1466,4.1454,4.1447,4.1442,4.1439,4.1428,4.1415,4.1424,4.142,4.1426,4.1415,4.1389,4.1427,4.1427,4.1419,4.1361,4.1353,4.1348,4.1395,4.1394,4.1394,4.1361,0,4.1443,4.1422,4.1431,4.1409,4.1401,4.1415,4.1404,4.1403,4.1406,4.1398,4.1401,4.1391,4.1405,4.1402,4.1393,4.1394,4.1378,4.1397,4.1384,4.1384,4.1384,4.1342,4.1334,4.1303,4.1357,4.1356,4.1356,0,4.1401,4.1398,4.1376,4.1378,4.1375,4.1365,4.136,4.1353,4.1351,4.1354,4.135,4.1359,4.1346,4.1362,4.1344,4.1357,4.1352,4.1353,4.1352,4.135,4.1367,4.1339,4.1293,4.1288,4.135,4.135,4.1351,0,4.1367,4.1357,4.1342,4.1341,4.1343,4.1336,4.1336,4.1336,4.1332,4.1328,4.1325,4.1319,4.1315,4.1309,4.1315,4.1327,4.1296,4.1313,4.1297,4.1297,4.1289,4.129,4.1242,4.1288,4.1288,4.1288,4.1288,0,4.1329,4.1314,4.1327,4.1318,4.1302,4.1312,4.1296,4.1298,4.1298,4.1289,4.1301,4.1292,4.1302,4.1293,4.1298,4.1282,4.128,4.1282,4.1283,4.128,4.128,4.1276,4.1278,4.1287,4.1287,4.1287,4.1287,0,4.1287,4.1295,4.128,4.1284,4.1285,4.1273,4.1276,4.1268,4.1272,4.1261,4.1259,4.1265,4.1256,4.1262,4.1252,4.1256,4.1235,4.1239,4.1236,4.1237,4.122,4.1222,4.1168,4.1161,4.1212,4.1212,4.1211,0,4.1261,4.1251,4.1255,4.125,4.1251,4.1243,4.1239,4.1249,4.1245,4.1243,4.1235,4.1227,4.1222,4.1207,4.121,4.1203,4.1207,4.1189,4.1205,4.1203,4.1206,4.1206,4.1205,4.1185,4.1184,4.1183,4.1183,0,4.1215,4.122,4.1215,4.1211,4.1207,4.1204,4.1202,4.1197,4.1208,4.1202,4.1194,4.119,4.1181,4.1173,4.1168,4.1168,4.1177,4.1178,4.1174,4.117,4.1168,4.1169,4.1225,4.1179,4.1179,4.118,4.118,4.118,4.1181,4.1172,4.1174,4.1168,4.1168,4.1166,4.1158,4.1162,4.1156,4.1151,4.1157,4.1147,4.1146,4.114,4.1139,4.1131,4.1138,4.1132,4.1131,4.1129,4.1126,4.1171,4.113,4.113,4.113,4.113,4.113,0,4.1135,4.1137,4.1131,4.1129,4.1124,4.1135,4.1134,4.1129,4.112,4.112,4.1114,4.1105,4.1098,4.1101,4.1095,4.1088,4.1092,4.1085,4.1085,4.1085,4.112,4.1124,4.1082,4.1082,4.1082,4.1082,4.1082,4.1082,4.111,4.1097,4.1102,4.1088,4.109,4.1082,4.108,4.1078,4.1078,4.1067,4.1062,4.1065,4.1065,4.1059,4.1053,4.1054,4.1051,4.1043,4.1046,4.1078,4.1083,4.1087,4.1091,4.1043,4.1043,4.1011,4.1011,4.1011]}]]